Location: Freemans Gardens
(41.6414°N, 83.6077°W)
Time: 08:37:43
(UTC+00:00)

Cosmos 2082 - Visible Passes

Search period start: 08 March 2021 00:00
Search period end: 18 March 2021 00:00
Orbit: 835 x 854 km, 71.0° (Epoch: 07 March)

Date Brightness Start Highest point End Pass type
(mag) Time Alt. Az. Time Alt. Az. Time Alt. Az.
08 Mar 6.3 10:51:38 10° SSE 10:55:56 23° E 11:00:14 10° NE visible
09 Mar 6.3 10:37:31 10° SSE 10:41:44 22° E 10:45:56 10° NE visible
10 Mar 6.3 10:23:25 10° SSE 10:27:31 21° E 10:31:37 10° NE visible
11 Mar 6.3 10:09:19 10° SE 10:13:19 20° E 10:17:19 10° NE visible
12 Mar 6.3 09:55:13 10° SE 09:59:06 19° E 10:02:59 10° NE visible
13 Mar 6.2 09:41:07 10° SE 09:44:54 19° E 09:48:40 10° ENE visible
14 Mar 6.2 09:27:02 10° SE 09:30:41 18° E 09:34:20 10° ENE visible
14 Mar 3.7 11:08:36 10° SW 11:14:11 64° WNW 11:19:48 10° NNE visible
15 Mar 6.2 09:12:57 10° SE 09:16:28 17° E 09:20:00 10° ENE visible
15 Mar 3.7 10:54:20 10° SSW 10:59:57 66° WNW 11:05:34 10° NNE visible
16 Mar 6.2 08:58:53 10° SE 09:02:16 16° E 09:05:39 10° ENE visible
16 Mar 3.7 10:40:05 10° SSW 10:45:43 69° WNW 10:51:21 10° NNE visible
17 Mar 6.2 08:44:50 10° SE 08:48:03 16° E 08:51:17 10° ENE visible
17 Mar 3.6 10:25:50 10° SSW 10:31:28 71° WNW 10:37:07 10° NNE visible
